TimeEST,TemperatureF,Dew PointF,Humidity,Sea Level PressureIn,VisibilityMPH,Wind Direction,Wind SpeedMPH,Gust SpeedMPH,PrecipitationIn,Events,Conditions,WindDirDegrees,DateUTC
12:15 AM,43.9,20.7,40,29.97,10.0,SSW,9.2,-,N/A,,Clear,210,2013-11-15 05:15:00
12:35 AM,43.7,21.0,41,29.97,10.0,SW,9.2,16.1,N/A,,Clear,220,2013-11-15 05:35:00
12:54 AM,43.7,21.2,41,29.97,10.0,SW,8.1,-,N/A,,Clear,220,2013-11-15 05:54:00
1:15 AM,43.7,21.2,41,29.96,10.0,SW,8.1,-,N/A,,Clear,220,2013-11-15 06:15:00
1:35 AM,43.7,21.6,41,29.97,10.0,SW,10.4,-,N/A,,Clear,220,2013-11-15 06:35:00
1:54 AM,43.7,21.7,42,29.97,10.0,SSW,8.1,-,N/A,,Clear,210,2013-11-15 06:54:00
2:15 AM,43.7,21.9,42,29.97,10.0,SSW,9.2,-,N/A,,Clear,210,2013-11-15 07:15:00
2:35 AM,43.7,21.9,42,29.97,10.0,SSW,10.4,18.4,N/A,,Clear,210,2013-11-15 07:35:00
2:55 AM,43.3,21.9,43,29.97,10.0,SSW,8.1,-,N/A,,Clear,210,2013-11-15 07:55:00
3:15 AM,43.3,21.7,42,29.97,10.0,SW,8.1,17.3,N/A,,Scattered Clouds,220,2013-11-15 08:15:00
3:35 AM,43.3,21.7,42,29.97,10.0,SSW,9.2,-,N/A,,Scattered Clouds,210,2013-11-15 08:35:00
3:55 AM,43.2,22.1,43,29.96,10.0,SSW,9.2,-,N/A,,Clear,210,2013-11-15 08:55:00
4:15 AM,43.3,21.7,42,29.96,10.0,SW,10.4,17.3,N/A,,Clear,220,2013-11-15 09:15:00
4:35 AM,43.3,21.9,43,29.96,10.0,SSW,9.2,16.1,N/A,,Clear,210,2013-11-15 09:35:00
4:55 AM,43.2,22.1,43,29.96,10.0,SSW,8.1,-,N/A,,Clear,210,2013-11-15 09:55:00
5:15 AM,42.8,22.3,44,29.96,10.0,SSW,9.2,-,N/A,,Clear,210,2013-11-15 10:15:00
5:34 AM,42.1,22.5,46,29.97,10.0,SSW,9.2,-,N/A,,Clear,200,2013-11-15 10:34:00
5:55 AM,41.9,22.6,46,29.96,10.0,SSW,9.2,-,N/A,,Clear,210,2013-11-15 10:55:00
6:15 AM,41.4,23.0,48,29.97,10.0,SSW,6.9,-,N/A,,Clear,210,2013-11-15 11:15:00
6:34 AM,41.0,23.4,50,29.97,10.0,SSW,6.9,-,N/A,,Clear,200,2013-11-15 11:34:00
6:55 AM,41.2,23.0,48,29.98,10.0,SSW,6.9,-,N/A,,Clear,200,2013-11-15 11:55:00
7:15 AM,41.0,23.4,50,29.98,10.0,SSW,9.2,-,N/A,,Clear,200,2013-11-15 12:15:00
7:35 AM,41.2,23.4,49,29.99,10.0,SSW,8.1,-,N/A,,Clear,200,2013-11-15 12:35:00
7:55 AM,41.2,23.5,50,29.99,10.0,SW,8.1,-,N/A,,Clear,220,2013-11-15 12:55:00
8:15 AM,41.4,23.9,50,29.99,10.0,SSW,8.1,-,N/A,,Clear,200,2013-11-15 13:15:00
8:35 AM,41.9,23.9,49,30.00,10.0,SSW,5.8,-,N/A,,Clear,200,2013-11-15 13:35:00
8:55 AM,41.9,24.1,49,30.00,10.0,South,6.9,-,N/A,,Clear,190,2013-11-15 13:55:00
9:15 AM,41.9,24.4,50,30.00,10.0,South,8.1,-,N/A,,Clear,190,2013-11-15 14:15:00
9:35 AM,42.8,24.6,49,30.00,10.0,SSW,8.1,-,N/A,,Clear,210,2013-11-15 14:35:00
9:55 AM,43.3,24.4,47,30.00,10.0,SSW,8.1,-,N/A,,Clear,200,2013-11-15 14:55:00
10:14 AM,45.1,24.4,44,30.00,10.0,SSW,9.2,-,N/A,,Clear,210,2013-11-15 15:14:00
10:35 AM,47.3,24.8,41,30.00,10.0,SSW,11.5,-,N/A,,Clear,210,2013-11-15 15:35:00
10:55 AM,48.6,24.6,39,30.00,10.0,SSW,12.7,17.3,N/A,,Clear,210,2013-11-15 15:55:00
11:14 AM,49.1,24.3,38,30.00,10.0,SSW,10.4,-,N/A,,Clear,200,2013-11-15 16:14:00
11:35 AM,49.6,24.1,37,29.99,10.0,SSW,10.4,-,N/A,,Clear,210,2013-11-15 16:35:00
11:55 AM,49.3,23.7,37,29.99,10.0,SSW,10.4,-,N/A,,Clear,200,2013-11-15 16:55:00
12:14 PM,49.6,23.5,36,29.98,10.0,SW,11.5,17.3,N/A,,Scattered Clouds,220,2013-11-15 17:14:00
12:35 PM,51.4,23.4,33,29.97,10.0,SW,11.5,-,N/A,,Scattered Clouds,220,2013-11-15 17:35:00
12:55 PM,52.2,22.6,32,29.96,10.0,SW,12.7,17.3,N/A,,Clear,220,2013-11-15 17:55:00
1:15 PM,52.3,23.2,32,29.96,10.0,SW,9.2,17.3,N/A,,Clear,220,2013-11-15 18:15:00
1:35 PM,53.6,23.2,31,29.96,10.0,SSW,10.4,-,N/A,,Scattered Clouds,200,2013-11-15 18:35:00
1:55 PM,54.0,22.3,29,29.95,10.0,SW,9.2,20.7,N/A,,Clear,220,2013-11-15 18:55:00
2:15 PM,53.1,22.3,30,29.95,10.0,SSW,12.7,-,N/A,,Clear,200,2013-11-15 19:15:00
2:35 PM,52.7,22.6,31,29.95,10.0,SW,8.1,-,N/A,,Clear,220,2013-11-15 19:35:00
2:54 PM,53.1,23.0,31,29.95,10.0,SSW,8.1,-,N/A,,Scattered Clouds,200,2013-11-15 19:54:00
3:15 PM,52.0,22.6,32,29.96,10.0,SSW,8.1,-,N/A,,Overcast,210,2013-11-15 20:15:00
3:35 PM,52.2,22.6,32,29.97,10.0,SW,8.1,17.3,N/A,,Overcast,230,2013-11-15 20:35:00
3:55 PM,51.6,23.5,33,29.97,10.0,SSW,8.1,-,N/A,,Overcast,210,2013-11-15 20:55:00
4:15 PM,51.3,23.4,34,29.97,10.0,SW,6.9,-,N/A,,Overcast,220,2013-11-15 21:15:00
4:34 PM,50.9,24.1,35,29.97,10.0,SW,5.8,-,N/A,,Overcast,220,2013-11-15 21:34:00
4:55 PM,50.4,25.2,37,29.98,10.0,SSW,4.6,-,N/A,,Overcast,200,2013-11-15 21:55:00
5:14 PM,50.0,24.6,37,29.98,10.0,SSW,8.1,-,N/A,,Overcast,210,2013-11-15 22:14:00
5:34 PM,50.5,23.7,35,29.98,10.0,SSW,4.6,-,N/A,,Overcast,210,2013-11-15 22:34:00
5:55 PM,49.8,23.5,36,29.98,10.0,SSW,8.1,-,N/A,,Overcast,210,2013-11-15 22:55:00
6:15 PM,49.6,23.5,36,29.99,10.0,SSW,8.1,-,N/A,,Overcast,210,2013-11-15 23:15:00
6:35 PM,49.1,24.1,38,30.00,10.0,SSW,6.9,-,N/A,,Overcast,200,2013-11-15 23:35:00
6:55 PM,48.7,25.0,40,30.00,10.0,SSW,6.9,-,N/A,,Overcast,200,2013-11-15 23:55:00
7:15 PM,47.3,25.3,42,30.01,10.0,South,4.6,-,N/A,,Overcast,190,2013-11-16 00:15:00
7:35 PM,46.0,25.0,44,30.01,10.0,South,3.5,-,N/A,,Scattered Clouds,190,2013-11-16 00:35:00
7:55 PM,45.1,25.3,46,30.00,10.0,Calm,Calm,-,N/A,,Clear,0,2013-11-16 00:55:00
8:15 PM,44.4,25.5,48,30.00,10.0,Calm,Calm,-,N/A,,Clear,0,2013-11-16 01:15:00
8:35 PM,40.3,26.8,59,30.00,10.0,SSE,3.5,-,N/A,,Clear,160,2013-11-16 01:35:00
8:55 PM,40.8,26.4,57,30.01,10.0,Calm,Calm,-,N/A,,Clear,0,2013-11-16 01:55:00
9:14 PM,42.8,26.1,52,30.01,10.0,SSE,3.5,-,N/A,,Clear,160,2013-11-16 02:14:00
9:35 PM,42.1,26.8,55,30.01,10.0,South,4.6,-,N/A,,Clear,170,2013-11-16 02:35:00
9:55 PM,41.9,27.5,57,30.01,10.0,South,4.6,-,N/A,,Clear,170,2013-11-16 02:55:00
10:14 PM,41.7,27.9,58,30.02,10.0,South,4.6,-,N/A,,Clear,180,2013-11-16 03:14:00
10:35 PM,41.4,28.0,59,30.01,10.0,South,3.5,-,N/A,,Clear,180,2013-11-16 03:35:00
10:55 PM,41.2,28.2,60,30.02,10.0,South,4.6,-,N/A,,Clear,170,2013-11-16 03:55:00
11:15 PM,41.0,28.4,61,30.01,10.0,South,4.6,-,N/A,,Clear,170,2013-11-16 04:15:00
11:35 PM,41.0,28.6,61,30.02,10.0,South,5.8,-,N/A,,Clear,170,2013-11-16 04:35:00
11:55 PM,41.0,28.6,61,30.03,10.0,South,5.8,-,N/A,,Clear,190,2013-11-16 04:55:00